User: anonymous   Login
Location: Pacheco
(37.9835°N, 122.0752°W)
Time: 12:45:30
(UTC+00:00)
Language:

IRS-1D - Orbit

View from above orbital plane
View from above orbital plane
View from above satellite
View from above satellite

Ground track
Ground track

The orbit data is extracted from the following two-line orbital elements,

1 24971U 97057A   24175.91109152  .00000238  00000-0  98655-4 0  9998
2 24971  98.7624 144.4791 0052312 196.9726 162.9710 14.34774386398861
Epoch (UTC): 23 June 2024 21:51:58
Eccentricity: 0.0052312
inclination: 98.7624°
perigee height: 738 km
apogee height: 813 km
right ascension of ascending node: 144.4791°
argument of perigee: 196.9726°
revolutions per day: 14.34774386
mean anomaly at epoch: 162.9710°
orbit number at epoch: 39886

The dashed part of the orbit path shows where the satellite is in the earth's shadow,  

DLR